Weather History for Newport Airport, OR

Change the Weather History Date:

Saturday, September 24, 2011

  Actual Average Record
Temperature  
Mean Temperature 59 °F -  
Max Temperature 68 °F 60 °F 87 °F (2006)
Min Temperature 50 °F 48 °F 37 °F (2005)
Degree Days  
Heating Degree Days 6    
Growing Degree Days 9 (Base 50)    
Moisture  
Dew Point 55 °F    
Average Humidity 87    
Maximum Humidity 100    
Minimum Humidity 64    
Precipitation  
Precipitation 0.00 in - - ()
Sea Level Pressure  
Sea Level Pressure 29.86 in    
Wind  
Wind Speed 8 mph (SSE)    
Max Wind Speed 29 mph    
Max Gust Speed 39 mph    
Visibility 8 miles    
Events      
Averages and records for this station are not official NWS values.
T = Trace of Precipitation, MM = Missing Value Source: NWS Daily Summary

Daily Weather History Graph

Daily Weather History Graph

Search for Another Location

Airport:

Trip Planner

Search our weather history database for the weather conditions in past years. The results will help you decide how hot, cold, wet, or windy it might be!

Date:

Astronomy

Sep. 24, 2011 Rise Set
Actual Time 7:05 AM PDT 7:10 PM PDT
Civil Twilight 6:36 AM PDT 7:39 PM PDT
Nautical Twilight 6:02 AM PDT 8:13 PM PDT
Astronomical Twilight 5:27 AM PDT 8:47 PM PDT
Moon 3:41 AM PDT (9/24) 5:24 PM PDT (9/24)
Length of Visible Light 13h 02m
Length of Day
12h 04m
Waning Crescent, 10% of the Moon is Illuminated
Sep 24
Waning Crescent
Sep 27
New
Oct 3
First Quarter
Oct 11
Full
Oct 19
Last Quarter

Hourly Weather History & Observations

Time (PDT) Temp. Dew Point Humidity Pressure Visibility Wind Dir Wind Speed Gust Speed Precip Events Conditions
12:15 AM 59.0 °F 59.0 °F 100% 29.97 in 10.0 mi ENE 3.5 mph - N/A   Overcast
12:35 AM 59.0 °F 59.0 °F 100% 29.97 in 10.0 mi East 3.5 mph - N/A   Overcast
12:55 AM 59.0 °F 59.0 °F 100% 29.97 in 10.0 mi ESE 3.5 mph - N/A   Overcast
1:15 AM 59.0 °F 59.0 °F 100% 29.96 in 10.0 mi East 4.6 mph - N/A   Overcast
1:35 AM 59.0 °F 59.0 °F 100% 29.95 in 10.0 mi East 6.9 mph - N/A   Overcast
1:55 AM 59.0 °F 59.0 °F 100% 29.94 in 10.0 mi East 6.9 mph - N/A   Overcast
2:15 AM 59.0 °F 59.0 °F 100% 29.94 in 10.0 mi East 5.8 mph - N/A   Overcast
2:35 AM 60.8 °F 59.0 °F 94% 29.93 in 10.0 mi Calm Calm - N/A   Overcast
2:55 AM 60.8 °F 59.0 °F 94% 29.93 in 10.0 mi East 3.5 mph - N/A   Overcast
3:15 AM 59.0 °F 57.2 °F 94% 29.91 in 10.0 mi ESE 3.5 mph - N/A   Overcast
3:35 AM 59.0 °F 55.4 °F 88% 29.90 in 10.0 mi East 5.8 mph - N/A   Mostly Cloudy
3:55 AM 57.2 °F 55.4 °F 94% 29.89 in 10.0 mi East 5.8 mph - N/A   Clear
4:15 AM 57.2 °F 55.4 °F 94% 29.88 in 10.0 mi ESE 4.6 mph - N/A   Clear
4:35 AM 55.4 °F 55.4 °F 100% 29.88 in 10.0 mi East 4.6 mph - N/A   Clear
4:55 AM 53.6 °F 53.6 °F 100% 29.88 in 10.0 mi Calm Calm - N/A   Clear
5:15 AM 55.4 °F 53.6 °F 94% 29.88 in 1.8 mi Calm Calm - N/A   Mist
5:35 AM 53.6 °F 51.8 °F 94% 29.87 in 1.5 mi Calm Calm - N/A   Mist
5:55 AM 53.6 °F 53.6 °F 100% 29.86 in 10.0 mi East 4.6 mph - N/A   Clear
6:15 AM 53.6 °F 51.8 °F 94% 29.86 in 10.0 mi East 3.5 mph - N/A   Clear
6:35 AM 53.6 °F 53.6 °F 100% 29.86 in 7.0 mi Calm Calm - N/A   Clear
6:55 AM 51.8 °F 51.8 °F 100% 29.85 in 5.0 mi Calm Calm - N/A   Clear
7:15 AM 50.0 °F 50.0 °F 100% 29.85 in 1.0 mi Calm Calm - N/A   Mist
7:35 AM 53.6 °F 51.8 °F 94% 29.85 in 7.0 mi ESE 3.5 mph - N/A   Clear
7:55 AM 53.6 °F 53.6 °F 100% 29.85 in 10.0 mi East 4.6 mph - N/A   Clear
8:15 AM 55.4 °F 55.4 °F 100% 29.84 in 10.0 mi East 3.5 mph - N/A   Clear
8:35 AM 57.2 °F 57.2 °F 100% 29.85 in 10.0 mi Calm Calm - N/A   Clear
9:15 AM 60.8 °F 55.4 °F 82% 29.85 in 3.0 mi WSW 5.8 mph - N/A   Haze
9:35 AM 59.0 °F 55.4 °F 88% 29.85 in 2.0 mi SW 4.6 mph - N/A   Clear
9:55 AM 59.0 °F 55.4 °F 88% 29.85 in 3.0 mi SW 4.6 mph - N/A   Scattered Clouds
10:15 AM 59.0 °F 55.4 °F 88% 29.86 in 2.5 mi SSW 11.5 mph - N/A   Overcast
10:35 AM 59.0 °F 55.4 °F 88% 29.85 in 5.0 mi SSW 11.5 mph 16.1 mph N/A   Overcast
10:55 AM 60.8 °F 57.2 °F 88% 29.86 in 7.0 mi SSW 11.5 mph - N/A   Overcast
11:15 AM 62.6 °F 55.4 °F 77% 29.86 in 7.0 mi SSW 16.1 mph 21.9 mph N/A   Mostly Cloudy
11:35 AM 62.6 °F 55.4 °F 77% 29.85 in 7.0 mi SSW 17.3 mph 21.9 mph N/A   Scattered Clouds
11:55 AM 64.4 °F 55.4 °F 73% 29.85 in 7.0 mi SSW 18.4 mph 23.0 mph N/A   Clear
12:15 PM 64.4 °F 55.4 °F 73% 29.84 in 10.0 mi SSW 18.4 mph 26.5 mph N/A   Clear
12:35 PM 64.4 °F 55.4 °F 73% 29.83 in 10.0 mi SSW 21.9 mph 26.5 mph N/A   Clear
12:55 PM 66.2 °F 55.4 °F 68% 29.83 in 10.0 mi SSW 19.6 mph 25.3 mph N/A   Clear
1:15 PM 66.2 °F 55.4 °F 68% 29.82 in 10.0 mi SSW 21.9 mph 28.8 mph N/A   Clear
1:35 PM 66.2 °F 55.4 °F 68% 29.82 in 10.0 mi SSW 20.7 mph 26.5 mph N/A   Clear
1:55 PM 64.4 °F 55.4 °F 73% 29.82 in 10.0 mi South 23.0 mph 29.9 mph N/A   Clear
2:15 PM 68.0 °F 55.4 °F 64% 29.81 in 10.0 mi SSW 25.3 mph 31.1 mph N/A   Clear
2:35 PM 68.0 °F 55.4 °F 64% 29.81 in 10.0 mi SSW 28.8 mph 34.5 mph N/A   Clear
2:55 PM 66.2 °F 55.4 °F 68% 29.80 in 10.0 mi South 23.0 mph 31.1 mph N/A   Scattered Clouds
3:15 PM 64.4 °F 55.4 °F 73% 29.79 in 10.0 mi SSW 24.2 mph 31.1 mph N/A   Scattered Clouds
3:35 PM 64.4 °F 55.4 °F 73% 29.78 in 10.0 mi SSW 25.3 mph 35.7 mph N/A   Clear
3:55 PM 64.4 °F 55.4 °F 73% 29.77 in 10.0 mi SSW 24.2 mph 33.4 mph N/A   Clear
4:35 PM 64.4 °F 53.6 °F 68% 29.77 in 10.0 mi SSW 26.5 mph 38.0 mph N/A   Clear
4:55 PM 64.4 °F 53.6 °F 68% 29.77 in 10.0 mi South 25.3 mph 39.1 mph N/A   Clear
5:15 PM 62.6 °F 53.6 °F 72% 29.77 in 10.0 mi South 21.9 mph 32.2 mph N/A   Clear
5:35 PM 62.6 °F 53.6 °F 72% 29.77 in 10.0 mi South 19.6 mph 28.8 mph N/A   Clear
5:55 PM 62.6 °F 53.6 °F 72% 29.76 in 10.0 mi SSW 26.5 mph 34.5 mph N/A   Clear
6:15 PM 60.8 °F 53.6 °F 77% 29.75 in 10.0 mi South 23.0 mph 33.4 mph N/A   Clear
6:35 PM 60.8 °F 53.6 °F 77% 29.75 in 10.0 mi South 21.9 mph 33.4 mph N/A   Clear
7:15 PM 60.8 °F 53.6 °F 77% 29.75 in 10.0 mi South 20.7 mph 32.2 mph N/A   Clear
7:35 PM 60.8 °F 53.6 °F 77% 29.73 in 10.0 mi South 25.3 mph 35.7 mph N/A   Clear
7:55 PM 62.6 °F 53.6 °F 72% 29.73 in 10.0 mi South 25.3 mph 33.4 mph N/A   Clear
8:15 PM 62.6 °F 53.6 °F 72% 29.73 in 10.0 mi South 25.3 mph 43.7 mph N/A   Clear
8:35 PM 62.6 °F 53.6 °F 72% 29.73 in 10.0 mi SSW 23.0 mph 36.8 mph N/A   Clear
8:55 PM 62.6 °F 53.6 °F 72% 29.72 in 10.0 mi South 18.4 mph 33.4 mph N/A   Clear
9:15 PM 62.6 °F 53.6 °F 72% 29.72 in 10.0 mi South 28.8 mph 35.7 mph N/A   Clear
9:35 PM 62.6 °F 53.6 °F 72% 29.72 in 10.0 mi South 27.6 mph 41.4 mph N/A   Clear
9:55 PM 64.4 °F 53.6 °F 68% 29.72 in 10.0 mi South 24.2 mph 39.1 mph N/A   Clear
10:15 PM 62.6 °F 53.6 °F 72% 29.72 in 10.0 mi SSW 27.6 mph 35.7 mph N/A   Clear
10:35 PM 62.6 °F 53.6 °F 72% 29.73 in 10.0 mi SSW 25.3 mph 35.7 mph N/A   Scattered Clouds
10:55 PM 60.8 °F 53.6 °F 77% 29.73 in 7.0 mi SSW 23.0 mph 33.4 mph N/A   Mostly Cloudy
11:15 PM 59.0 °F 55.4 °F 88% 29.74 in 3.0 mi SSW 26.5 mph 33.4 mph N/A Rain Rain
11:35 PM 59.0 °F 55.4 °F 88% 29.75 in 2.5 mi SSW 29.9 mph 39.1 mph 0.02 in Rain Rain
11:55 PM 59.0 °F 57.2 °F 94% 29.75 in 2.5 mi South 25.3 mph 40.3 mph 0.03 in Rain Light Rain